Volver al catálogo

YAOGAN 21

ActivoMilitarSSO
NORAD 40143·PAYLOAD·🇨🇳 China

Lanzado Sep 8, 2014 desde Taiyuan Satellite Launch Center

Loading…

Próximos Pases (próximas 24 horas)

TLE

ActualizadoSource: Space-Track

Época: Sep 14, 2026, 14:47 UTC

1 40143U 14053A   26257.61614353  .00003640  00000-0  13833-3 0  9990
2 40143  97.1399 294.0423 0009205 127.0111 233.1973 15.27363944668603

Sigue YAOGAN 21 en tiempo real con AllMySat

Download on the App Store